Wind_Speed
16 15 14 13 11 8 6 4 2 1 4 6 7 9 11 13 14 15 15 16 17 18 18 17 17 16 15 15 14 12 11 10 9 7 6 4 3 1 1 1 2 3 3 3
18 17 16 15 13 11 9 7 4 2 3 4 6 7 10 12 13 14 15 15 16 17 18 17 17 16 15 15 14 13 12 10 9 8 7 5 3 2 2 2 3 4 4 4
20 18 17 16 15 13 11 10 8 6 5 6 7 7 9 11 12 13 14 14 15 15 17 16 16 15 15 14 14 14 13 11 10 8 7 6 5 3 2 2 3 4 4 5
22 21 19 17 16 15 14 12 11 9 8 7 8 7 8 10 11 12 13 13 13 14 15 16 15 15 14 14 14 13 13 12 10 9 8 7 5 5 3 3 3 3 4 5
23 22 21 19 17 16 15 14 13 12 11 9 9 8 8 9 10 10 11 11 12 13 14 15 14 14 14 14 14 13 13 12 11 10 9 8 7 6 5 5 4 5 5 6
24 23 22 20 19 18 16 15 15 14 13 11 10 10 9 8 9 9 10 11 12 13 14 14 13 13 14 14 14 14 14 13 12 12 11 9 7 7 6 6 6 6 6 7
25 24 23 21 21 20 18 16 16 15 14 13 11 11 10 8 9 9 10 10 11 12 13 13 13 13 14 14 14 14 14 14 13 12 12 11 9 8 7 7 7 7 7 8
27 26 24 23 22 20 19 18 17 17 16 15 13 13 11 9 10 10 9 9 10 10 11 11 12 12 13 13 14 15 14 14 13 13 12 12 11 9 8 7 7 8 8 9
28 27 25 24 23 22 21 20 19 18 18 17 15 13 12 11 11 10 9 9 9 9 10 11 11 11 12 13 14 14 15 14 14 13 13 12 12 10 9 8 8 8 8 9
29 28 26 25 24 24 22 22 21 20 19 17 16 14 13 12 10 10 9 8 8 9 10 11 11 11 12 13 13 14 14 14 14 14 13 13 13 12 10 10 9 9 10 10
30 29 28 27 26 24 23 23 22 22 21 19 18 15 13 12 10 9 9 8 9 10 11 11 11 11 12 13 13 14 15 14 14 14 14 14 14 13 11 11 11 11 11 11
30 29 28 28 27 26 25 24 24 24 22 20 19 17 14 13 12 12 11 11 11 11 12 12 12 12 13 13 13 14 15 14 14 15 15 15 15 14 14 12 12 12 12 12
30 30 29 28 28 27 27 26 25 25 24 23 21 19 17 15 14 13 13 13 12 11 12 12 12 12 13 13 13 14 15 14 15 15 16 15 15 15 15 15 14 13 13 14
30 30 29 28 27 26 27 26 26 25 25 24 22 20 18 17 15 15 15 14 13 12 11 12 13 13 14 14 15 16 15 15 16 16 16 16 17 17 17 17 16 15 15 15
30 31 30 28 28 27 27 27 26 26 25 24 22 21 19 18 17 16 15 15 14 14 13 13 14 15 15 15 16 16 16 16 17 17 17 18 18 19 19 19 18 18 17 17
32 32 32 30 29 29 29 28 27 27 26 25 24 22 21 20 19 17 15 15 15 14 14 15 15 16 16 16 16 17 17 18 18 18 19 20 20 21 20 21 20 19 19 18
33 33 33 32 31 32 32 30 29 29 27 26 25 23 21 20 19 19 17 17 16 15 15 16 17 17 17 17 17 18 19 19 20 20 21 21 22 22 22 23 21 20 20 19
34 33 32 32 31 32 30 30 30 30 29 28 27 25 23 21 20 19 19 18 17 17 18 19 19 19 19 19 19 19 20 20 21 21 21 22 23 23 23 23 22 21 21 21
35 35 34 34 33 32 30 30 31 31 31 30 29 27 26 23 23 22 21 21 20 20 21 20 21 21 20 20 20 20 20 21 22 21 22 23 24 24 24 24 23 22 22 21
35 35 35 35 35 34 32 31 32 32 32 30 30 28 27 25 25 23 23 23 22 22 22 22 22 22 21 21 21 21 21 22 22 23 24 24 25 25 25 25 25 24 23 22
36 36 36 35 35 35 33 32 32 33 32 30 31 30 28 27 26 25 24 24 23 23 24 24 24 23 22 22 22 22 22 23 24 25 25 25 26 26 26 26 25 24 24 23
37 36 36 36 35 35 33 33 32 33 32 32 30 29 28 28 27 26 25 24 24 25 25 25 24 24 24 24 23 23 24 25 26 26 26 26 26 26 26 26 25 25 25 24
38 37 37 37 36 35 33 33 32 32 31 31 30 29 30 30 28 28 28 27 25 25 25 26 26 27 27 26 25 25 25 26 27 27 27 26 26 26 26 26 25 25 24 24
38 38 38 38 37 36 34 33 32 31 31 31 31 31 31 31 31 30 30 29 28 27 27 28 28 28 27 26 25 26 26 27 27 26 26 26 26 27 26 25 25 25 25 25
38 38 39 38 37 36 35 34 33 32 32 33 33 33 32 32 32 31 31 30 29 29 28 28 28 28 29 27 26 26 27 28 27 27 26 27 28 28 27 26 25 25 26 26
38 39 39 38 37 36 34 34 33 31 31 32 33 33 32 32 32 31 30 30 29 29 29 29 28 29 29 29 27 26 27 28 28 28 28 28 29 28 28 27 27 26 27 27
Wind_Direction
212 212 212 213 215 211 205 196 162 27 14 21 22 20 15 17 18 16 17 19 21 19 20 23 25 29 32 32 35 37 36 35 33 34 35 32 25 14 331 270 247 243 245 252
215 213 212 215 220 220 218 220 223 254 316 348 358 6 6 8 13 13 14 16 18 18 18 18 20 24 27 28 31 35 33 32 31 31 29 25 23 10 328 293 263 252 252 251
216 216 216 217 221 225 228 229 238 257 280 315 330 342 351 360 5 8 11 12 15 16 17 18 22 24 25 27 28 27 25 25 25 23 22 17 9 347 305 302 281 258 255 255
216 217 218 220 225 228 231 234 239 250 270 293 308 320 335 344 355 359 3 8 12 13 13 14 21 24 25 24 23 22 20 20 20 15 12 10 2 351 334 318 298 281 269 264
217 220 222 224 229 230 232 236 240 250 261 273 287 303 327 338 346 352 356 5 9 10 9 12 17 19 21 21 21 20 17 14 13 8 3 1 357 345 332 318 304 290 280 279
219 221 223 226 230 232 234 235 241 251 258 265 276 290 311 332 341 344 349 359 7 8 8 11 14 15 18 20 19 17 13 11 8 5 3 356 348 339 332 321 307 292 285 281
221 223 224 227 231 233 234 236 241 249 254 261 272 282 299 318 328 335 342 352 1 6 9 11 13 15 17 16 14 12 9 7 5 2 0 357 346 336 329 323 312 298 291 287
224 224 226 228 230 232 234 238 244 250 254 259 267 278 291 303 316 325 334 343 352 358 4 8 11 11 10 8 8 8 8 6 5 2 359 355 351 345 339 328 321 309 299 295
225 226 227 229 229 231 233 236 242 248 253 260 266 274 284 296 308 318 324 331 342 351 357 2 5 6 4 2 2 1 2 2 2 359 356 352 347 344 343 335 323 317 311 304
226 226 226 228 231 232 233 237 240 245 252 260 266 270 281 290 300 312 317 322 335 346 349 353 357 358 356 355 355 356 357 358 357 355 352 348 346 343 342 338 328 323 320 314
225 227 226 228 231 234 236 237 242 247 252 259 262 268 278 287 292 301 306 312 322 333 338 341 346 350 350 350 350 350 350 350 351 351 350 347 344 342 340 337 330 323 318 315
225 227 227 227 229 232 234 237 242 246 251 256 259 265 272 278 284 293 299 302 307 316 326 333 337 341 343 345 345 345 344 345 346 346 346 348 347 344 339 336 331 324 320 316
226 227 227 226 228 231 233 236 242 247 251 255 257 264 270 275 283 288 291 296 299 305 316 325 330 335 337 338 338 339 338 341 345 344 343 343 343 341 338 335 332 324 318 314
228 231 231 232 232 234 235 238 242 246 251 255 259 264 268 273 280 285 285 288 293 299 310 318 323 327 329 330 331 333 336 337 338 338 338 337 336 335 333 332 329 324 320 315
228 232 234 235 233 234 236 239 242 246 251 255 257 260 266 271 277 281 281 282 286 297 304 310 315 320 322 322 324 327 327 329 330 331 332 332 330 331 329 328 323 320 317 314
230 233 235 236 235 234 236 239 242 246 250 252 254 258 261 265 271 276 280 280 283 290 295 299 306 312 315 316 318 320 323 323 325 326 326 327 328 328 325 322 320 317 314 311
233 235 237 238 237 238 239 239 241 245 249 250 253 257 261 263 268 272 274 275 278 282 286 291 297 304 307 310 311 314 317 320 322 323 324 324 325 324 324 323 318 314 312 311
234 236 239 240 239 240 241 240 242 245 248 249 252 256 260 262 264 268 272 276 276 277 283 287 291 299 302 303 306 309 312 316 318 318 321 322 323 321 321 321 318 312 309 308
236 237 239 239 240 242 240 241 244 246 248 250 253 256 258 259 263 266 269 274 275 275 280 284 287 291 295 298 302 306 309 311 314 315 318 320 320 320 319 319 317 314 308 306
235 237 239 241 242 243 244 244 246 248 250 250 253 254 255 258 262 266 268 270 273 274 279 281 284 288 291 296 299 302 306 310 313 314 314 315 316 317 317 317 316 314 309 305
234 235 238 242 244 245 246 247 248 249 251 251 253 254 257 258 261 264 267 271 276 277 278 279 283 289 293 294 295 299 303 306 308 309 310 312 313 313 313 313 312 312 310 307
235 236 238 241 244 246 248 249 249 249 249 250 252 253 255 257 259 261 265 271 275 276 276 277 283 289 291 292 293 296 298 302 304 306 307 309 311 312 312 311 309 308 307 306
236 237 239 242 245 248 249 249 249 248 248 248 250 251 253 255 257 258 261 267 271 274 275 278 282 286 289 291 291 293 295 298 300 302 305 307 310 311 312 310 309 307 307 306
237 238 241 243 245 248 250 250 249 248 247 246 247 248 251 253 258 261 263 266 267 271 275 278 282 284 287 288 290 293 294 296 298 300 302 305 308 310 310 309 308 306 306 305
239 240 242 244 246 249 251 251 251 249 247 246 245 247 249 253 258 260 262 264 267 270 273 278 282 286 289 290 289 291 294 295 295 298 300 303 306 308 308 307 307 306 304 304
241 242 243 244 246 248 249 250 252 251 247 246 246 247 248 251 256 259 260 262 266 270 274 277 281 284 287 290 292 292 295 295 297 299 300 301 303 304 305 304 304 304 304 303
Height
5921 5924 5925 5927 5928 5929 5930 5930 5930 5931 5930 5930 5929 5928 5927 5925 5923 5921 5919 5916 5914 5911 5908 5906 5903 5900 5898 5895 5894 5892 5891 5889 5888 5887 5886 5885 5885 5885 5885 5885 5885 5885 5885 5886
5920 5922 5924 5925 5927 5928 5929 5930 5930 5930 5930 5930 5929 5928 5927 5926 5925 5923 5920 5917 5915 5912 5910 5907 5904 5901 5899 5897 5895 5893 5892 5890 5889 5888 5887 5886 5885 5885 5885 5885 5885 5885 5885 5885
5918 5921 5922 5924 5925 5927 5928 5929 5930 5930 5930 5929 5929 5929 5928 5927 5925 5923 5921 5918 5916 5913 5911 5908 5905 5903 5900 5898 5896 5895 5893 5891 5890 5889 5887 5887 5886 5885 5884 5884 5884 5884 5884 5884
5915 5918 5920 5922 5923 5925 5926 5927 5928 5929 5929 5929 5930 5929 5928 5927 5926 5924 5922 5919 5917 5914 5911 5909 5906 5904 5901 5899 5897 5895 5893 5892 5890 5889 5888 5887 5886 5885 5884 5884 5883 5883 5883 5883
5912 5915 5917 5920 5922 5924 5925 5926 5927 5927 5928 5928 5928 5928 5929 5927 5926 5924 5922 5920 5918 5915 5912 5910 5907 5905 5902 5900 5898 5896 5894 5892 5891 5889 5888 5887 5886 5885 5884 5883 5882 5882 5882 5882
5909 5912 5915 5917 5919 5921 5923 5924 5925 5925 5926 5927 5927 5927 5927 5926 5925 5924 5922 5920 5918 5916 5913 5910 5908 5905 5903 5901 5899 5897 5895 5893 5891 5889 5888 5886 5885 5884 5883 5882 5882 5881 5881 5880
5906 5909 5912 5914 5916 5918 5920 5922 5923 5923 5924 5925 5925 5925 5926 5926 5924 5923 5922 5920 5918 5916 5913 5911 5908 5906 5904 5902 5900 5898 5896 5894 5892 5890 5888 5886 5885 5883 5882 5881 5880 5880 5879 5879
5902 5906 5909 5911 5913 5915 5917 5919 5921 5922 5922 5923 5923 5923 5925 5924 5923 5922 5921 5920 5918 5916 5914 5911 5909 5907 5904 5903 5901 5898 5896 5894 5892 5890 5888 5886 5884 5882 5881 5880 5879 5878 5878 5877
5898 5902 5905 5908 5910 5912 5913 5915 5918 5919 5919 5920 5921 5922 5923 5922 5922 5921 5920 5919 5917 5915 5913 5911 5909 5907 5905 5903 5901 5899 5897 5894 5892 5890 5887 5885 5883 5881 5879 5878 5877 5876 5876 5875
5894 5898 5901 5904 5906 5908 5911 5913 5914 5915 5916 5917 5918 5919 5921 5920 5920 5920 5919 5918 5916 5915 5913 5911 5909 5907 5905 5903 5901 5898 5896 5894 5892 5889 5887 5884 5882 5880 5878 5877 5876 5874 5874 5873
5889 5893 5897 5900 5902 5904 5907 5909 5910 5912 5913 5914 5915 5919 5919 5919 5918 5918 5917 5916 5915 5914 5912 5910 5908 5906 5904 5902 5900 5898 5896 5894 5891 5889 5886 5884 5881 5879 5877 5876 5874 5873 5872 5870
5884 5888 5891 5895 5898 5900 5902 5905 5907 5909 5910 5911 5912 5917 5916 5916 5916 5916 5916 5915 5914 5912 5911 5909 5907 5905 5903 5901 5899 5897 5895 5893 5890 5888 5885 5883 5881 5878 5876 5874 5872 5871 5870 5868
5879 5883 5887 5890 5894 5896 5898 5900 5902 5905 5906 5907 5909 5913 5912 5913 5913 5914 5913 5912 5911 5910 5909 5907 5905 5903 5901 5899 5898 5896 5893 5891 5889 5887 5884 5882 5880 5877 5875 5873 5871 5869 5867 5866
5874 5878 5882 5886 5889 5891 5893 5896 5898 5900 5901 5903 5905 5908 5909 5910 5910 5911 5910 5909 5909 5907 5906 5905 5903 5902 5900 5898 5896 5894 5891 5890 5888 5885 5883 5880 5878 5876 5873 5871 5869 5867 5865 5863
5868 5872 5876 5880 5883 5886 5888 5891 5893 5895 5897 5899 5901 5903 5905 5906 5907 5907 5907 5906 5906 5905 5904 5903 5901 5899 5897 5896 5894 5892 5890 5888 5885 5883 5880 5878 5876 5873 5871 5868 5866 5864 5862 5860
5862 5866 5869 5873 5877 5880 5883 5885 5888 5890 5892 5894 5896 5899 5900 5901 5902 5903 5903 5903 5902 5902 5901 5900 5898 5896 5894 5892 5891 5889 5887 5885 5883 5880 5878 5875 5873 5870 5867 5865 5862 5860 5858 5856
5855 5859 5863 5867 5870 5873 5876 5880 5882 5885 5887 5889 5891 5894 5895 5896 5898 5899 5899 5899 5898 5898 5897 5896 5895 5893 5891 5889 5887 5885 5883 5881 5879 5877 5874 5871 5869 5866 5864 5861 5858 5856 5854 5852
5850 5853 5856 5860 5864 5867 5873 5874 5877 5879 5881 5883 5886 5888 5890 5892 5893 5894 5894 5894 5894 5894 5893 5892 5890 5889 5887 5885 5883 5881 5879 5877 5875 5873 5870 5868 5865 5862 5859 5856 5854 5851 5849 5847
5843 5846 5849 5853 5856 5860 5865 5868 5870 5872 5874 5877 5880 5882 5884 5885 5887 5888 5889 5889 5889 5889 5888 5887 5886 5884 5883 5881 5879 5877 5875 5873 5871 5868 5866 5863 5860 5857 5855 5852 5849 5846 5844 5842
5835 5839 5843 5846 5849 5852 5859 5861 5862 5866 5867 5871 5873 5876 5878 5879 5881 5883 5883 5883 5883 5883 5882 5881 5880 5879 5877 5876 5874 5872 5870 5868 5866 5864 5861 5859 5856 5853 5850 5847 5843 5841 5838 5836
5828 5831 5835 5838 5841 5845 5850 5852 5855 5859 5862 5865 5866 5869 5870 5872 5875 5877 5877 5877 5877 5876 5876 5875 5874 5873 5872 5870 5869 5867 5865 5864 5862 5859 5856 5854 5851 5847 5844 5841 5838 5836 5833 5831
5820 5824 5827 5831 5834 5840 5842 5845 5848 5851 5854 5856 5858 5861 5863 5865 5867 5869 5870 5870 5871 5870 5869 5869 5868 5867 5866 5864 5863 5861 5860 5858 5856 5854 5851 5848 5845 5841 5838 5835 5832 5830 5827 5825
5812 5816 5819 5824 5829 5831 5834 5836 5839 5842 5845 5848 5850 5853 5856 5858 5859 5861 5862 5863 5863 5863 5863 5862 5862 5861 5859 5858 5856 5855 5854 5852 5850 5847 5845 5842 5839 5836 5832 5829 5827 5824 5821 5819
5803 5807 5811 5815 5819 5822 5825 5828 5831 5834 5837 5840 5842 5845 5847 5849 5852 5853 5854 5854 5855 5856 5856 5856 5855 5853 5852 5851 5850 5848 5847 5845 5843 5841 5838 5836 5833 5830 5826 5823 5821 5818 5815 5813
5795 5799 5802 5806 5810 5814 5817 5820 5823 5826 5828 5831 5834 5836 5839 5841 5843 5845 5846 5847 5848 5848 5849 5848 5848 5847 5846 5844 5843 5842 5840 5838 5836 5834 5832 5829 5827 5824 5820 5817 5815 5812 5809 5807
5786 5790 5794 5798 5802 5805 5808 5811 5814 5817 5819 5822 5825 5828 5830 5832 5835 5836 5838 5839 5839 5840 5841 5841 5840 5840 5839 5837 5836 5835 5833 5831 5829 5827 5824 5822 5820 5817 5814 5811 5808 5805 5803 5800